Torna al catalogo

NAHID 2

AttivoComunicazioniSSO
NORAD 64889·PAYLOAD·🇮🇷 Iran
Questo nome del satellite non è ancora stato confermato da fonti ufficiali.

Lanciato Jul 25, 2025 da Vostochny Cosmodrome

Loading…

Prossimi Passaggi (prossime 24 ore)

TLE

AggiornatoSource: Space-Track

Epoca: Sep 14, 2026, 14:14 UTC

1 64889U 25155P   26257.59344810  .00004085  00000-0  15582-3 0  9990
2 64889  97.4706 225.4269 0006029 208.7652 151.3255 15.27237689 94350

Traccia NAHID 2 in tempo reale con AllMySat

Download on the App Store